Time,TemperatureF,DewpointF,PressureIn,WindDirection,WindDirectionDegrees,WindSpeedMPH,WindSpeedGustMPH,Humidity,HourlyPrecipIn,Conditions,Clouds,dailyrainin,SoftwareType,DateUTC
2013-01-30 00:01:00,54.1,54.1,29.55,South,180,1.6,5.8,100,0.00,RA,,0.00,WeatherDisplay:10.37,2013-01-30 00:01:00,
2013-01-30 00:06:00,54.1,54.1,29.55,SE,135,2.2,6.9,100,0.00,RA,,0.00,WeatherDisplay:10.37,2013-01-30 00:06:00,
2013-01-30 00:11:00,54.1,54.1,29.53,South,180,2.2,6.9,100,0.00,CLR,,0.00,WeatherDisplay:10.37,2013-01-30 00:11:00,
2013-01-30 00:16:00,54.1,54.1,29.53,SE,135,1.6,6.9,100,0.00,CLR,,0.00,WeatherDisplay:10.37,2013-01-30 00:16:00,
2013-01-30 00:21:00,54.1,54.1,29.54,SSE,158,3.1,6.0,100,0.00,CLR,,0.00,WeatherDisplay:10.37,2013-01-30 00:21:00,
2013-01-30 00:26:00,54.0,54.0,29.54,South,180,2.2,4.6,100,0.00,CLR,,0.00,WeatherDisplay:10.37,2013-01-30 00:26:00,
2013-01-30 00:31:00,54.0,54.0,29.54,South,180,3.8,8.1,100,0.00,CLR,,0.00,WeatherDisplay:10.37,2013-01-30 00:31:00,
2013-01-30 00:36:00,54.0,54.0,29.53,WSW,248,3.1,9.2,100,0.00,CLR,,0.00,WeatherDisplay:10.37,2013-01-30 00:36:00,
2013-01-30 00:41:00,54.0,54.0,29.53,South,180,0.7,8.1,100,0.00,CLR,,0.00,WeatherDisplay:10.37,2013-01-30 00:41:00,
2013-01-30 00:46:00,54.0,54.0,29.53,SE,135,1.6,5.8,100,0.00,CLR,,0.00,WeatherDisplay:10.37,2013-01-30 00:46:00,
2013-01-30 00:51:00,54.0,54.0,29.53,SE,135,2.2,6.9,100,0.00,CLR,,0.00,WeatherDisplay:10.37,2013-01-30 00:51:00,
2013-01-30 00:56:00,54.0,54.0,29.53,NNE,22,2.2,6.9,100,0.00,CLR,,0.00,WeatherDisplay:10.37,2013-01-30 00:56:00,
2013-01-30 01:01:00,54.0,54.0,29.53,WSW,248,3.8,8.1,100,0.00,CLR,,0.00,WeatherDisplay:10.37,2013-01-30 01:01:00,
2013-01-30 01:06:00,54.0,54.0,29.53,SE,135,4.5,9.8,100,0.01,RA,,0.01,WeatherDisplay:10.37,2013-01-30 01:06:00,
2013-01-30 01:11:00,54.0,54.0,29.52,East,90,5.4,10.4,100,0.01,RA,,0.01,WeatherDisplay:10.37,2013-01-30 01:11:00,
2013-01-30 01:16:00,53.8,53.8,29.52,SE,135,6.0,11.4,100,0.01,CLR,,0.01,WeatherDisplay:10.37,2013-01-30 01:16:00,
2013-01-30 01:21:00,53.8,53.8,29.52,SE,135,1.6,6.9,100,0.02,RA,,0.02,WeatherDisplay:10.37,2013-01-30 01:21:00,
2013-01-30 01:26:00,53.8,53.8,29.52,ENE,68,3.1,10.4,100,0.02,RA,,0.02,WeatherDisplay:10.37,2013-01-30 01:26:00,
2013-01-30 01:31:00,53.8,53.8,29.52,NW,315,5.4,10.7,100,0.02,,,0.02,WeatherDisplay:10.37,2013-01-30 01:31:00,
2013-01-30 01:36:00,53.8,53.8,29.52,ENE,68,4.5,12.7,100,0.02,CLR,,0.02,WeatherDisplay:10.37,2013-01-30 01:36:00,
2013-01-30 01:41:00,53.8,53.8,29.51,SSE,158,3.1,6.0,100,0.02,CLR,,0.02,WeatherDisplay:10.37,2013-01-30 01:41:00,
2013-01-30 01:46:00,53.8,53.8,29.51,SSE,158,3.1,8.1,100,0.02,CLR,,0.02,WeatherDisplay:10.37,2013-01-30 01:46:00,
2013-01-30 01:51:00,53.8,53.8,29.51,SE,135,3.1,10.4,100,0.02,CLR,,0.02,WeatherDisplay:10.37,2013-01-30 01:51:00,
2013-01-30 01:56:00,53.8,53.8,29.51,South,180,3.1,6.9,100,0.02,CLR,,0.02,WeatherDisplay:10.37,2013-01-30 01:56:00,
2013-01-30 02:01:00,54.0,54.0,29.51,NW,315,3.1,8.1,100,0.02,CLR,,0.02,WeatherDisplay:10.37,2013-01-30 02:01:00,
2013-01-30 02:07:00,54.0,54.0,29.52,SE,135,3.8,11.5,100,0.01,CLR,,0.02,WeatherDisplay:10.37,2013-01-30 02:07:00,
2013-01-30 02:12:00,54.0,54.0,29.51,South,180,3.1,9.2,100,0.01,CLR,,0.02,WeatherDisplay:10.37,2013-01-30 02:12:00,
2013-01-30 02:17:00,54.0,54.0,29.52,NW,315,0.7,6.9,100,0.01,CLR,,0.02,WeatherDisplay:10.37,2013-01-30 02:17:00,
2013-01-30 02:22:00,54.0,54.0,29.51,WSW,248,3.1,8.3,100,0.01,RA,,0.04,WeatherDisplay:10.37,2013-01-30 02:22:00,
2013-01-30 02:27:00,53.8,53.8,29.51,East,90,0.7,8.1,100,0.01,RA,,0.04,WeatherDisplay:10.37,2013-01-30 02:27:00,
2013-01-30 02:32:00,53.8,53.8,29.51,SE,135,1.6,8.1,100,0.02,RA,,0.05,WeatherDisplay:10.37,2013-01-30 02:32:00,
2013-01-30 02:37:00,53.8,53.8,29.51,NE,45,3.1,9.2,100,0.02,RA,,0.05,WeatherDisplay:10.37,2013-01-30 02:37:00,
2013-01-30 02:42:00,53.8,53.8,29.51,NW,315,3.1,8.1,100,0.02,CLR,,0.05,WeatherDisplay:10.37,2013-01-30 02:42:00,
2013-01-30 02:47:00,53.8,53.8,29.51,South,180,1.6,5.8,100,0.02,CLR,,0.05,WeatherDisplay:10.37,2013-01-30 02:47:00,
2013-01-30 02:52:00,53.8,53.8,29.51,SE,135,3.1,6.9,100,0.02,CLR,,0.05,WeatherDisplay:10.37,2013-01-30 02:52:00,
2013-01-30 02:57:00,53.8,53.8,29.50,South,180,1.6,9.2,100,0.02,CLR,,0.05,WeatherDisplay:10.37,2013-01-30 02:57:00,
2013-01-30 03:02:00,53.8,53.8,29.51,North,0,3.1,9.2,100,0.02,CLR,,0.05,WeatherDisplay:10.37,2013-01-30 03:02:00,
2013-01-30 03:07:00,53.8,53.8,29.50,South,180,0.7,6.9,100,0.02,CLR,,0.06,WeatherDisplay:10.37,2013-01-30 03:07:00,
2013-01-30 03:12:00,53.8,53.8,29.50,WSW,248,2.2,6.9,100,0.04,RA,,0.06,WeatherDisplay:10.37,2013-01-30 03:12:00,
2013-01-30 03:17:00,53.8,53.8,29.50,NE,45,2.2,8.1,100,0.04,RA,,0.06,WeatherDisplay:10.37,2013-01-30 03:17:00,
2013-01-30 03:22:00,53.8,53.8,29.51,East,90,2.2,6.0,100,0.04,RA,,0.07,WeatherDisplay:10.37,2013-01-30 03:22:00,
2013-01-30 03:27:00,53.8,53.8,29.52,NE,45,3.1,8.1,100,0.06,RA,,0.09,WeatherDisplay:10.37,2013-01-30 03:27:00,
2013-01-30 03:32:00,53.1,53.1,29.52,North,0,4.5,8.3,100,0.06,RA,,0.11,WeatherDisplay:10.37,2013-01-30 03:32:00,
2013-01-30 03:37:00,52.3,52.3,29.53,NE,45,3.8,8.3,100,0.07,RA,,0.12,WeatherDisplay:10.37,2013-01-30 03:37:00,
2013-01-30 03:42:00,52.0,52.0,29.53,North,0,0.7,8.1,100,0.07,RA,,0.12,WeatherDisplay:10.37,2013-01-30 03:42:00,
2013-01-30 03:47:00,51.8,51.8,29.53,NE,45,1.6,3.5,100,0.07,CLR,,0.12,WeatherDisplay:10.37,2013-01-30 03:47:00,
2013-01-30 03:52:00,52.2,52.2,29.53,North,0,2.2,5.8,100,0.07,CLR,,0.13,WeatherDisplay:10.37,2013-01-30 03:52:00,
2013-01-30 03:57:00,51.4,51.4,29.53,NE,45,0.7,5.8,100,0.08,RA,,0.13,WeatherDisplay:10.37,2013-01-30 03:57:00,
2013-01-30 04:02:00,51.1,51.1,29.54,WSW,248,3.1,5.8,100,0.08,,,0.13,WeatherDisplay:10.37,2013-01-30 04:02:00,
2013-01-30 04:07:00,50.5,50.5,29.53,North,0,1.6,8.1,100,0.07,CLR,,0.13,WeatherDisplay:10.37,2013-01-30 04:07:00,
2013-01-30 04:12:00,50.4,50.4,29.54,NW,315,0.7,4.6,100,0.07,CLR,,0.13,WeatherDisplay:10.37,2013-01-30 04:12:00,
2013-01-30 04:17:00,50.5,50.5,29.54,NW,315,0.7,4.6,100,0.07,CLR,,0.13,WeatherDisplay:10.37,2013-01-30 04:17:00,
2013-01-30 04:22:00,50.2,50.2,29.55,North,0,1.6,5.8,100,0.07,RA,,0.14,WeatherDisplay:10.37,2013-01-30 04:22:00,
2013-01-30 04:27:00,50.2,50.2,29.55,WSW,248,0.0,1.1,100,0.05,RA,,0.14,WeatherDisplay:10.37,2013-01-30 04:27:00,
2013-01-30 04:32:00,50.0,50.0,29.55,ENE,68,0.7,3.8,100,0.04,CLR,,0.14,WeatherDisplay:10.37,2013-01-30 04:32:00,
2013-01-30 04:37:00,49.8,49.8,29.55,WNW,292,1.6,5.8,100,0.04,RA,,0.17,WeatherDisplay:10.37,2013-01-30 04:37:00,
2013-01-30 04:42:00,49.8,49.8,29.55,South,180,0.0,3.5,100,0.05,RA,,0.17,WeatherDisplay:10.37,2013-01-30 04:42:00,
2013-01-30 04:47:00,49.8,49.8,29.56,West,270,0.7,3.5,100,0.05,,,0.17,WeatherDisplay:10.37,2013-01-30 04:47:00,
2013-01-30 04:52:00,49.6,49.6,29.55,North,0,0.0,3.8,100,0.04,CLR,,0.17,WeatherDisplay:10.37,2013-01-30 04:52:00,
2013-01-30 04:57:00,49.6,49.6,29.56,North,0,1.6,3.8,100,0.04,CLR,,0.17,WeatherDisplay:10.37,2013-01-30 04:57:00,
2013-01-30 05:00:00,49.6,49.6,29.56,NE,45,0.0,2.3,100,0.04,CLR,,0.17,WeatherDisplay:10.37,2013-01-30 05:00:00,
2013-01-30 05:03:00,49.5,49.5,29.56,NW,315,0.7,2.3,100,0.05,RA,,0.18,WeatherDisplay:10.37,2013-01-30 05:03:00,
2013-01-30 05:04:00,49.5,49.5,29.56,NW,315,0.0,1.6,100,0.05,RA,,0.18,WeatherDisplay:10.37,2013-01-30 05:04:00,
2013-01-30 05:09:00,49.5,49.5,29.55,SE,135,0.0,2.3,100,0.05,RA,,0.18,WeatherDisplay:10.37,2013-01-30 05:09:00,
2013-01-30 05:14:00,49.3,49.3,29.55,South,180,0.0,3.5,100,0.05,CLR,,0.18,WeatherDisplay:10.37,2013-01-30 05:14:00,
2013-01-30 05:19:00,49.1,49.1,29.55,South,180,0.7,3.5,100,0.04,CLR,,0.18,WeatherDisplay:10.37,2013-01-30 05:19:00,
2013-01-30 05:24:00,49.1,49.1,29.55,SE,135,1.6,3.8,100,0.04,CLR,,0.18,WeatherDisplay:10.37,2013-01-30 05:24:00,
2013-01-30 05:29:00,49.1,49.1,29.57,North,0,0.7,1.6,100,0.04,CLR,,0.18,WeatherDisplay:10.37,2013-01-30 05:29:00,
2013-01-30 05:34:00,49.1,49.1,29.57,South,180,0.7,3.8,100,0.02,CLR,,0.18,WeatherDisplay:10.37,2013-01-30 05:34:00,
2013-01-30 05:39:00,49.1,49.1,29.57,WSW,248,1.6,4.6,100,0.01,CLR,,0.18,WeatherDisplay:10.37,2013-01-30 05:39:00,
2013-01-30 05:44:00,49.1,49.1,29.58,North,0,0.0,3.5,100,0.01,CLR,,0.18,WeatherDisplay:10.37,2013-01-30 05:44:00,
2013-01-30 05:49:00,49.1,49.1,29.57,SE,135,1.6,3.5,100,0.02,RA,,0.19,WeatherDisplay:10.37,2013-01-30 05:49:00,
2013-01-30 05:55:00,49.1,49.1,29.56,South,180,0.0,3.5,100,0.02,RA,,0.19,WeatherDisplay:10.37,2013-01-30 05:55:00,
2013-01-30 06:00:00,49.1,49.1,29.55,South,180,0.7,2.3,100,0.02,CLR,,0.19,WeatherDisplay:10.37,2013-01-30 06:00:00,
2013-01-30 06:05:00,48.9,48.9,29.57,NE,45,0.7,2.2,100,0.01,CLR,,0.19,WeatherDisplay:10.37,2013-01-30 06:05:00,
2013-01-30 06:10:00,48.9,48.9,29.58,East,90,0.0,2.3,100,0.01,CLR,,0.19,WeatherDisplay:10.37,2013-01-30 06:10:00,
2013-01-30 06:15:00,48.7,48.7,29.58,East,99,1.0,6.0,100,0.00,-SN,-SN,0.19,WeatherDisplay:10.37,2013-01-30 06:15:00,
2013-01-30 06:20:00,48.7,48.7,29.57,ESE,122,1.0,6.0,100,0.00,-SN,-SN,0.19,WeatherDisplay:10.37,2013-01-30 06:20:00,
2013-01-30 06:25:00,48.6,48.6,29.58,SE,145,1.0,8.0,100,0.00,-SN,-SN,0.19,WeatherDisplay:10.37,2013-01-30 06:25:00,
2013-01-30 06:30:00,48.4,48.4,29.58,SSE,156,0.0,5.0,100,0.00,-SN,-SN,0.19,WeatherDisplay:10.37,2013-01-30 06:30:00,
2013-01-30 06:35:00,48.4,48.4,29.58,NE,45,0.7,3.5,100,0.01,CLR,,0.19,WeatherDisplay:10.37,2013-01-30 06:35:00,
2013-01-30 06:40:00,48.2,48.2,29.58,South,180,0.7,2.3,100,0.01,CLR,,0.19,WeatherDisplay:10.37,2013-01-30 06:40:00,
2013-01-30 06:45:00,48.2,48.2,29.58,ESE,108,1.0,4.0,100,0.00,-SN,-SN,0.19,WeatherDisplay:10.37,2013-01-30 06:45:00,
2013-01-30 06:50:00,48.0,48.0,29.58,ENE,61,0.0,4.0,100,0.00,-SN,-SN,0.19,WeatherDisplay:10.37,2013-01-30 06:50:00,
2013-01-30 06:55:00,48.0,48.0,29.59,SE,135,0.7,3.5,100,0.00,CLR,,0.19,WeatherDisplay:10.37,2013-01-30 06:55:00,
2013-01-30 07:00:00,47.8,47.8,29.59,SE,141,0.0,3.0,100,0.00,-SN,-SN,0.19,WeatherDisplay:10.37,2013-01-30 07:00:00,
2013-01-30 07:05:00,47.8,47.8,29.60,ESE,116,0.0,3.0,100,0.00,-SN,-SN,0.19,WeatherDisplay:10.37,2013-01-30 07:05:00,
2013-01-30 07:10:00,47.8,47.8,29.60,North,0,1.6,6.0,100,0.00,CLR,,0.19,WeatherDisplay:10.37,2013-01-30 07:10:00,
2013-01-30 07:15:00,48.0,48.0,29.61,NNE,25,2.0,6.0,100,0.00,-SN,-SN,0.19,WeatherDisplay:10.37,2013-01-30 07:15:00,
2013-01-30 07:20:00,48.2,48.2,29.61,North,350,1.0,5.0,100,0.00,-SN,-SN,0.19,WeatherDisplay:10.37,2013-01-30 07:20:00,
2013-01-30 07:25:00,48.2,48.2,29.61,North,3,1.0,8.0,100,0.00,-SN,-SN,0.19,WeatherDisplay:10.37,2013-01-30 07:25:00,
2013-01-30 07:30:00,48.4,48.4,29.61,NE,45,1.6,5.8,100,0.00,CLR,,0.19,WeatherDisplay:10.37,2013-01-30 07:30:00,
2013-01-30 07:35:00,48.2,48.2,29.61,WSW,248,2.2,6.0,100,0.00,CLR,,0.19,WeatherDisplay:10.37,2013-01-30 07:35:00,
2013-01-30 07:40:00,48.2,48.2,29.61,North,0,0.7,5.8,100,0.00,CLR,,0.19,WeatherDisplay:10.37,2013-01-30 07:40:00,
2013-01-30 07:45:00,48.4,48.4,29.61,NW,315,1.6,6.9,100,0.00,CLR,,0.19,WeatherDisplay:10.37,2013-01-30 07:45:00,
2013-01-30 07:50:00,48.4,48.4,29.62,NE,45,1.6,3.5,100,0.00,CLR,,0.19,WeatherDisplay:10.37,2013-01-30 07:50:00,
2013-01-30 07:55:00,48.6,48.6,29.62,NE,45,3.1,9.2,100,0.00,CLR,,0.19,WeatherDisplay:10.37,2013-01-30 07:55:00,
2013-01-30 08:00:00,48.7,48.7,29.62,East,90,2.2,4.5,100,0.00,CLR,,0.19,WeatherDisplay:10.37,2013-01-30 08:00:00,
2013-01-30 08:05:00,48.7,48.7,29.63,WSW,248,1.6,5.8,100,0.00,CLR,,0.19,WeatherDisplay:10.37,2013-01-30 08:05:00,
2013-01-30 08:10:00,48.9,48.9,29.63,SE,135,1.6,3.5,100,0.00,CLR,,0.19,WeatherDisplay:10.37,2013-01-30 08:10:00,
2013-01-30 08:15:00,48.9,48.9,29.63,SE,135,1.6,3.5,100,0.00,CLR,,0.19,WeatherDisplay:10.37,2013-01-30 08:15:00,
2013-01-30 08:20:00,48.9,48.9,29.63,North,0,2.2,6.9,100,0.00,CLR,,0.19,WeatherDisplay:10.37,2013-01-30 08:20:00,
2013-01-30 08:25:00,49.1,49.1,29.63,East,90,1.6,6.9,100,0.00,CLR,,0.19,WeatherDisplay:10.37,2013-01-30 08:25:00,
2013-01-30 08:30:00,49.3,49.3,29.63,West,270,1.6,6.9,100,0.00,CLR,,0.19,WeatherDisplay:10.37,2013-01-30 08:30:00,
2013-01-30 08:35:00,49.5,49.5,29.63,North,0,0.7,6.9,100,0.00,CLR,,0.19,WeatherDisplay:10.37,2013-01-30 08:35:00,
2013-01-30 08:40:00,49.6,49.6,29.63,North,0,1.6,4.6,100,0.00,CLR,,0.19,WeatherDisplay:10.37,2013-01-30 08:40:00,
2013-01-30 08:45:00,49.6,49.4,29.63,North,0,1.6,6.9,99,0.00,CLR,,0.19,WeatherDisplay:10.37,2013-01-30 08:45:00,
2013-01-30 08:50:00,49.6,49.1,29.64,NE,45,2.2,6.9,98,0.00,CLR,,0.19,WeatherDisplay:10.37,2013-01-30 08:50:00,
2013-01-30 08:55:00,49.8,49.3,29.64,SSE,158,1.6,4.6,98,0.00,CLR,,0.19,WeatherDisplay:10.37,2013-01-30 08:55:00,
2013-01-30 09:00:00,49.8,49.0,29.64,NW,315,3.1,5.4,97,0.00,CLR,,0.19,WeatherDisplay:10.37,2013-01-30 09:00:00,
2013-01-30 09:05:00,49.8,49.0,29.64,NE,45,2.2,8.1,97,0.00,CLR,,0.19,WeatherDisplay:10.37,2013-01-30 09:05:00,
2013-01-30 09:10:00,49.8,49.0,29.65,North,0,2.2,6.9,97,0.00,CLR,,0.19,WeatherDisplay:10.37,2013-01-30 09:10:00,
2013-01-30 09:15:00,49.8,49.0,29.65,NW,315,1.6,4.6,97,0.00,CLR,,0.19,WeatherDisplay:10.37,2013-01-30 09:15:00,
2013-01-30 09:20:00,50.0,48.9,29.65,North,0,1.6,5.8,96,0.00,CLR,,0.19,WeatherDisplay:10.37,2013-01-30 09:20:00,
2013-01-30 09:25:00,50.0,48.9,29.65,East,90,1.6,5.8,96,0.00,CLR,,0.19,WeatherDisplay:10.37,2013-01-30 09:25:00,
2013-01-30 09:30:00,50.4,49.3,29.65,West,270,2.2,6.9,96,0.00,CLR,,0.19,WeatherDisplay:10.37,2013-01-30 09:30:00,
2013-01-30 09:35:00,50.9,49.2,29.66,North,0,1.6,4.5,94,0.00,CLR,,0.19,WeatherDisplay:10.37,2013-01-30 09:35:00,
2013-01-30 09:40:00,51.1,49.1,29.66,East,90,2.2,8.1,93,0.00,CLR,,0.19,WeatherDisplay:10.37,2013-01-30 09:40:00,
2013-01-30 09:45:00,50.9,48.7,29.66,WSW,248,2.2,8.1,92,0.00,CLR,,0.19,WeatherDisplay:10.37,2013-01-30 09:45:00,
2013-01-30 09:50:00,50.9,48.7,29.67,North,0,2.2,6.9,92,0.00,CLR,,0.19,WeatherDisplay:10.37,2013-01-30 09:50:00,
2013-01-30 09:55:00,50.9,48.7,29.67,NE,45,4.5,13.7,92,0.00,CLR,,0.19,WeatherDisplay:10.37,2013-01-30 09:55:00,
2013-01-30 10:00:00,50.9,48.7,29.67,East,90,1.6,6.0,92,0.00,CLR,,0.19,WeatherDisplay:10.37,2013-01-30 10:00:00,
2013-01-30 10:05:00,50.9,48.4,29.67,SE,135,0.7,8.1,91,0.00,CLR,,0.19,WeatherDisplay:10.37,2013-01-30 10:05:00,
2013-01-30 10:10:00,50.7,48.5,29.68,East,90,2.2,10.4,92,0.00,CLR,,0.19,WeatherDisplay:10.37,2013-01-30 10:10:00,
2013-01-30 10:15:00,50.2,47.7,29.67,North,0,2.2,8.1,91,0.00,CLR,,0.19,WeatherDisplay:10.37,2013-01-30 10:15:00,
2013-01-30 10:20:00,49.8,47.9,29.67,SE,135,2.2,5.8,93,0.00,CLR,,0.19,WeatherDisplay:10.37,2013-01-30 10:20:00,
2013-01-30 10:25:00,50.0,48.6,29.68,NE,45,1.6,8.1,95,0.00,CLR,,0.19,WeatherDisplay:10.37,2013-01-30 10:25:00,
2013-01-30 10:30:00,51.6,49.4,29.68,NE,45,1.6,8.1,92,0.00,CLR,,0.19,WeatherDisplay:10.37,2013-01-30 10:30:00,
2013-01-30 10:35:00,53.1,49.6,29.68,North,0,3.1,8.1,88,0.00,CLR,,0.19,WeatherDisplay:10.37,2013-01-30 10:35:00,
2013-01-30 10:40:00,54.0,49.2,29.69,SSE,158,3.1,11.5,84,0.00,CLR,,0.19,WeatherDisplay:10.37,2013-01-30 10:40:00,
2013-01-30 10:45:00,54.5,49.1,29.68,East,90,3.8,10.4,82,0.00,CLR,,0.19,WeatherDisplay:10.37,2013-01-30 10:45:00,
2013-01-30 10:50:00,54.9,48.8,29.69,NW,315,2.2,8.1,80,0.00,CLR,,0.19,WeatherDisplay:10.37,2013-01-30 10:50:00,
2013-01-30 10:55:00,54.9,47.8,29.69,NW,315,5.4,9.2,77,0.00,CLR,,0.19,WeatherDisplay:10.37,2013-01-30 10:55:00,
2013-01-30 11:01:00,54.7,47.6,29.70,North,0,3.1,8.1,77,0.01,RA,,0.20,WeatherDisplay:10.37,2013-01-30 11:01:00,
2013-01-30 11:06:00,54.9,47.4,29.70,NW,315,6.0,10.7,76,0.01,RA,,0.20,WeatherDisplay:10.37,2013-01-30 11:06:00,
2013-01-30 11:11:00,54.9,47.1,29.70,West,270,6.9,12.1,75,0.01,CLR,,0.20,WeatherDisplay:10.37,2013-01-30 11:11:00,
2013-01-30 11:16:00,54.5,46.7,29.70,NE,45,3.8,7.6,75,0.01,CLR,,0.20,WeatherDisplay:10.37,2013-01-30 11:16:00,
2013-01-30 11:21:00,54.5,46.4,29.70,North,0,5.4,19.6,74,0.01,CLR,,0.20,WeatherDisplay:10.37,2013-01-30 11:21:00,
2013-01-30 11:26:00,53.8,46.7,29.70,NE,45,5.4,17.3,77,0.01,CLR,,0.20,WeatherDisplay:10.37,2013-01-30 11:26:00,
2013-01-30 11:31:00,53.6,46.2,29.70,NW,315,3.8,12.7,76,0.01,CLR,,0.20,WeatherDisplay:10.37,2013-01-30 11:31:00,
2013-01-30 11:36:00,53.4,46.0,29.71,South,180,4.5,17.3,76,0.01,CLR,,0.20,WeatherDisplay:10.37,2013-01-30 11:36:00,
2013-01-30 11:41:00,53.6,45.9,29.71,North,0,7.6,10.7,75,0.01,CLR,,0.20,WeatherDisplay:10.37,2013-01-30 11:41:00,
2013-01-30 11:46:00,53.2,45.5,29.71,NNE,22,6.9,16.1,75,0.01,CLR,,0.20,WeatherDisplay:10.37,2013-01-30 11:46:00,
2013-01-30 11:51:00,53.4,45.7,29.71,NW,315,3.1,8.1,75,0.01,CLR,,0.20,WeatherDisplay:10.37,2013-01-30 11:51:00,
2013-01-30 11:56:00,54.5,46.4,29.72,NW,315,3.1,6.9,74,0.01,CLR,,0.20,WeatherDisplay:10.37,2013-01-30 11:56:00,
2013-01-30 12:01:00,54.3,45.8,29.71,NNW,338,4.5,10.4,73,0.00,CLR,,0.20,WeatherDisplay:10.37,2013-01-30 12:01:00,
2013-01-30 12:06:00,53.8,45.7,29.72,North,0,4.5,8.1,74,0.00,CLR,,0.20,WeatherDisplay:10.37,2013-01-30 12:06:00,
2013-01-30 12:11:00,53.4,45.3,29.72,NW,315,5.4,9.8,74,0.00,CLR,,0.20,WeatherDisplay:10.37,2013-01-30 12:11:00,
2013-01-30 12:16:00,54.1,45.3,29.72,North,0,6.0,10.7,72,0.00,CLR,,0.20,WeatherDisplay:10.37,2013-01-30 12:16:00,
2013-01-30 12:21:00,53.1,44.6,29.72,NE,45,6.0,12.7,73,0.00,CLR,,0.20,WeatherDisplay:10.37,2013-01-30 12:21:00,
2013-01-30 12:26:00,53.2,44.8,29.71,West,270,7.6,14.5,73,0.00,CLR,,0.20,WeatherDisplay:10.37,2013-01-30 12:26:00,
2013-01-30 12:31:00,53.1,45.0,29.72,North,0,3.8,12.7,74,0.00,CLR,,0.20,WeatherDisplay:10.37,2013-01-30 12:31:00,
2013-01-30 12:36:00,53.8,45.0,29.73,WSW,248,6.0,10.7,72,0.00,CLR,,0.20,WeatherDisplay:10.37,2013-01-30 12:36:00,
2013-01-30 12:41:00,55.0,45.8,29.73,WNW,292,5.4,10.7,71,0.00,CLR,,0.20,WeatherDisplay:10.37,2013-01-30 12:41:00,
2013-01-30 12:46:00,55.6,45.9,29.73,West,270,5.4,20.7,70,0.00,CLR,,0.20,WeatherDisplay:10.37,2013-01-30 12:46:00,
2013-01-30 12:51:00,55.8,46.1,29.73,North,0,3.8,6.0,70,0.00,CLR,,0.20,WeatherDisplay:10.37,2013-01-30 12:51:00,
2013-01-30 12:56:00,55.6,45.6,29.74,NW,315,3.8,17.3,69,0.00,CLR,,0.20,WeatherDisplay:10.37,2013-01-30 12:56:00,
2013-01-30 13:01:00,55.8,45.4,29.74,WNW,292,3.8,12.7,68,0.00,CLR,,0.20,WeatherDisplay:10.37,2013-01-30 13:01:00,
2013-01-30 13:06:00,56.1,44.9,29.75,NE,45,7.6,15.0,66,0.00,CLR,,0.20,WeatherDisplay:10.37,2013-01-30 13:06:00,
2013-01-30 13:11:00,55.4,43.8,29.75,NNE,22,5.4,9.2,65,0.00,CLR,,0.20,WeatherDisplay:10.37,2013-01-30 13:11:00,
2013-01-30 13:16:00,55.8,43.3,29.75,NW,315,9.2,15.9,63,0.00,CLR,,0.20,WeatherDisplay:10.37,2013-01-30 13:16:00,
2013-01-30 13:21:00,55.4,43.8,29.75,North,0,5.4,17.3,65,0.00,CLR,,0.20,WeatherDisplay:10.37,2013-01-30 13:21:00,
2013-01-30 13:26:00,54.3,43.6,29.75,East,90,6.0,10.4,67,0.00,CLR,,0.20,WeatherDisplay:10.37,2013-01-30 13:26:00,
2013-01-30 13:31:00,54.3,43.6,29.75,North,0,4.5,10.4,67,0.00,CLR,,0.20,WeatherDisplay:10.37,2013-01-30 13:31:00,
2013-01-30 13:36:00,54.9,43.7,29.75,West,270,5.4,10.4,66,0.00,CLR,,0.20,WeatherDisplay:10.37,2013-01-30 13:36:00,
2013-01-30 13:41:00,55.2,43.2,29.75,NW,315,4.5,13.8,64,0.00,CLR,,0.20,WeatherDisplay:10.37,2013-01-30 13:41:00,
2013-01-30 13:46:00,56.3,43.9,29.76,North,0,3.8,8.1,63,0.00,CLR,,0.20,WeatherDisplay:10.37,2013-01-30 13:46:00,
2013-01-30 13:51:00,56.1,43.7,29.76,NW,315,4.5,11.5,63,0.00,CLR,,0.20,WeatherDisplay:10.37,2013-01-30 13:51:00,
2013-01-30 13:56:00,55.8,43.3,29.76,NNE,22,1.6,15.0,63,0.00,CLR,,0.20,WeatherDisplay:10.37,2013-01-30 13:56:00,
2013-01-30 14:01:00,55.6,42.8,29.77,West,270,4.5,10.4,62,0.00,CLR,,0.20,WeatherDisplay:10.37,2013-01-30 14:01:00,
2013-01-30 14:06:00,54.7,42.3,29.76,NE,45,4.5,12.7,63,0.00,CLR,,0.20,WeatherDisplay:10.37,2013-01-30 14:06:00,
2013-01-30 14:12:00,54.0,41.6,29.76,East,90,6.0,17.3,63,0.00,CLR,,0.20,WeatherDisplay:10.37,2013-01-30 14:12:00,
2013-01-30 14:17:00,53.6,41.3,29.77,North,0,7.6,14.5,63,0.00,CLR,,0.20,WeatherDisplay:10.37,2013-01-30 14:17:00,
2013-01-30 14:22:00,53.2,41.0,29.77,WNW,292,12.1,35.8,63,0.00,CLR,,0.20,WeatherDisplay:10.37,2013-01-30 14:22:00,
2013-01-30 14:27:00,53.2,41.8,29.77,North,0,6.0,12.7,65,0.00,CLR,,0.20,WeatherDisplay:10.37,2013-01-30 14:27:00,
2013-01-30 14:32:00,53.1,41.6,29.77,North,0,6.9,12.7,65,0.00,CLR,,0.20,WeatherDisplay:10.37,2013-01-30 14:32:00,
2013-01-30 14:37:00,52.9,41.4,29.77,West,270,3.8,15.2,65,0.00,CLR,,0.20,WeatherDisplay:10.37,2013-01-30 14:37:00,
2013-01-30 14:42:00,52.7,41.3,29.77,East,90,6.0,13.0,65,0.00,CLR,,0.20,WeatherDisplay:10.37,2013-01-30 14:42:00,
2013-01-30 14:47:00,52.7,41.3,29.77,North,0,7.6,21.3,65,0.00,CLR,,0.20,WeatherDisplay:10.37,2013-01-30 14:47:00,
2013-01-30 14:52:00,52.7,41.7,29.77,South,180,6.9,14.5,66,0.00,CLR,,0.20,WeatherDisplay:10.37,2013-01-30 14:52:00,
2013-01-30 14:57:00,52.7,41.7,29.77,WNW,292,5.4,15.0,66,0.00,CLR,,0.20,WeatherDisplay:10.37,2013-01-30 14:57:00,
2013-01-30 15:02:00,52.5,41.1,29.77,North,0,7.6,10.7,65,0.00,CLR,,0.20,WeatherDisplay:10.37,2013-01-30 15:02:00,
2013-01-30 15:07:00,52.5,41.5,29.78,NNW,338,8.3,15.9,66,0.00,CLR,,0.20,WeatherDisplay:10.37,2013-01-30 15:07:00,
2013-01-30 15:12:00,52.5,41.5,29.78,NNE,22,5.4,11.5,66,0.00,CLR,,0.20,WeatherDisplay:10.37,2013-01-30 15:12:00,
2013-01-30 15:17:00,52.5,41.5,29.78,South,180,7.6,16.8,66,0.00,CLR,,0.20,WeatherDisplay:10.37,2013-01-30 15:17:00,
2013-01-30 15:22:00,52.3,41.3,29.78,North,0,9.2,17.5,66,0.00,CLR,,0.20,WeatherDisplay:10.37,2013-01-30 15:22:00,
2013-01-30 15:27:00,52.3,41.3,29.79,West,270,6.0,10.4,66,0.00,CLR,,0.20,WeatherDisplay:10.37,2013-01-30 15:27:00,
2013-01-30 15:32:00,52.3,41.7,29.80,NE,45,4.5,9.2,67,0.00,CLR,,0.20,WeatherDisplay:10.37,2013-01-30 15:32:00,
2013-01-30 15:37:00,52.3,41.7,29.80,WNW,292,6.0,15.0,67,0.00,CLR,,0.20,WeatherDisplay:10.37,2013-01-30 15:37:00,
2013-01-30 15:42:00,52.2,41.5,29.80,North,0,4.5,12.7,67,0.00,CLR,,0.20,WeatherDisplay:10.37,2013-01-30 15:42:00,
2013-01-30 15:47:00,52.0,41.0,29.79,North,0,6.0,13.8,66,0.00,CLR,,0.20,WeatherDisplay:10.37,2013-01-30 15:47:00,
2013-01-30 15:50:00,45.7,40.5,30.01,NNW,334,1.0,3.0,82,0.00,-SN,-SN,0.20,WeatherDisplay:10.37,2013-01-30 15:50:00,
2013-01-30 15:52:00,51.8,40.8,29.81,North,0,7.6,15.9,66,0.00,CLR,,0.20,WeatherDisplay:10.37,2013-01-30 15:52:00,
2013-01-30 15:55:00,45.7,40.5,30.01,West,269,2.0,6.0,82,0.00,-SN,-SN,0.20,WeatherDisplay:10.37,2013-01-30 15:55:00,
2013-01-30 15:57:00,51.8,41.2,29.80,North,0,4.5,9.2,67,0.00,CLR,,0.20,WeatherDisplay:10.37,2013-01-30 15:57:00,
2013-01-30 16:00:00,45.7,40.8,30.02,NNW,333,1.0,6.0,83,0.00,-SN,-SN,0.20,WeatherDisplay:10.37,2013-01-30 16:00:00,
2013-01-30 16:02:00,51.8,41.2,29.81,North,0,5.4,17.5,67,0.00,CLR,,0.20,WeatherDisplay:10.37,2013-01-30 16:02:00,
2013-01-30 16:05:00,45.5,40.6,30.02,NNW,346,2.0,5.0,83,0.00,-SN,-SN,0.20,WeatherDisplay:10.37,2013-01-30 16:05:00,
2013-01-30 16:07:00,51.6,41.0,29.81,SE,135,4.5,16.1,67,0.00,CLR,,0.20,WeatherDisplay:10.37,2013-01-30 16:07:00,
2013-01-30 16:12:00,51.4,41.2,29.81,SE,135,3.8,16.1,68,0.00,CLR,,0.20,WeatherDisplay:10.37,2013-01-30 16:12:00,
2013-01-30 16:17:00,51.4,41.2,29.81,North,0,5.4,20.7,68,0.00,CLR,,0.20,WeatherDisplay:10.37,2013-01-30 16:17:00,
2013-01-30 16:22:00,51.3,41.1,29.81,NE,45,4.5,12.1,68,0.00,CLR,,0.20,WeatherDisplay:10.37,2013-01-30 16:22:00,
2013-01-30 16:27:00,51.1,41.3,29.82,West,270,6.0,15.0,69,0.00,CLR,,0.20,WeatherDisplay:10.37,2013-01-30 16:27:00,
2013-01-30 16:32:00,51.1,41.3,29.81,NE,45,4.5,8.3,69,0.00,CLR,,0.20,WeatherDisplay:10.37,2013-01-30 16:32:00,
2013-01-30 16:37:00,50.9,41.1,29.81,WNW,292,6.0,10.7,69,0.00,CLR,,0.20,WeatherDisplay:10.37,2013-01-30 16:37:00,
2013-01-30 16:42:00,50.7,41.3,29.82,NW,315,4.5,8.1,70,0.00,CLR,,0.20,WeatherDisplay:10.37,2013-01-30 16:42:00,
2013-01-30 16:48:00,50.7,41.3,29.82,NW,315,3.8,10.4,70,0.00,CLR,,0.20,WeatherDisplay:10.37,2013-01-30 16:48:00,
2013-01-30 16:53:00,50.5,41.1,29.82,WNW,292,3.8,15.0,70,0.00,CLR,,0.20,WeatherDisplay:10.37,2013-01-30 16:53:00,
2013-01-30 16:58:00,50.5,41.1,29.83,WNW,292,6.0,12.7,70,0.00,CLR,,0.20,WeatherDisplay:10.37,2013-01-30 16:58:00,
2013-01-30 17:03:00,50.5,41.1,29.82,NE,45,3.8,7.6,70,0.00,CLR,,0.20,WeatherDisplay:10.37,2013-01-30 17:03:00,
2013-01-30 17:08:00,50.4,40.9,29.83,SE,135,2.2,13.0,70,0.00,CLR,,0.20,WeatherDisplay:10.37,2013-01-30 17:08:00,
2013-01-30 17:13:00,50.4,41.3,29.83,North,0,3.1,10.4,71,0.00,CLR,,0.20,WeatherDisplay:10.37,2013-01-30 17:13:00,
2013-01-30 17:18:00,50.2,41.1,29.83,NNW,338,4.5,10.7,71,0.00,CLR,,0.20,WeatherDisplay:10.37,2013-01-30 17:18:00,
2013-01-30 17:23:00,50.2,41.1,29.83,North,0,4.5,8.3,71,0.00,CLR,,0.20,WeatherDisplay:10.37,2013-01-30 17:23:00,
2013-01-30 17:28:00,50.2,41.1,29.83,NW,315,6.9,16.1,71,0.00,CLR,,0.20,WeatherDisplay:10.37,2013-01-30 17:28:00,
2013-01-30 17:33:00,50.0,41.0,29.84,NW,315,5.4,11.5,71,0.00,CLR,,0.20,WeatherDisplay:10.37,2013-01-30 17:33:00,
2013-01-30 17:38:00,50.0,41.0,29.85,NW,315,5.4,13.8,71,0.00,CLR,,0.20,WeatherDisplay:10.37,2013-01-30 17:38:00,
2013-01-30 17:43:00,50.0,41.0,29.85,WSW,248,3.1,10.4,71,0.00,CLR,,0.20,WeatherDisplay:10.37,2013-01-30 17:43:00,
2013-01-30 17:48:00,49.8,41.2,29.86,North,0,3.8,10.4,72,0.00,CLR,,0.20,WeatherDisplay:10.37,2013-01-30 17:48:00,
2013-01-30 17:53:00,49.6,41.0,29.85,North,0,4.5,13.8,72,0.00,CLR,,0.20,WeatherDisplay:10.37,2013-01-30 17:53:00,
2013-01-30 17:58:00,49.8,41.2,29.86,NE,45,3.8,12.7,72,0.00,CLR,,0.20,WeatherDisplay:10.37,2013-01-30 17:58:00,
2013-01-30 18:03:00,49.6,41.3,29.87,NW,315,3.8,6.9,73,0.00,CLR,,0.20,WeatherDisplay:10.37,2013-01-30 18:03:00,
2013-01-30 18:08:00,49.5,41.2,29.87,North,0,3.1,9.2,73,0.00,CLR,,0.20,WeatherDisplay:10.37,2013-01-30 18:08:00,
2013-01-30 18:13:00,49.5,41.2,29.88,North,0,3.8,10.4,73,0.00,CLR,,0.20,WeatherDisplay:10.37,2013-01-30 18:13:00,
2013-01-30 18:18:00,49.5,41.5,29.88,NNE,22,3.1,6.0,74,0.00,CLR,,0.20,WeatherDisplay:10.37,2013-01-30 18:18:00,
2013-01-30 18:23:00,49.5,41.5,29.88,North,0,5.4,11.4,74,0.00,CLR,,0.20,WeatherDisplay:10.37,2013-01-30 18:23:00,
2013-01-30 18:28:00,49.3,41.3,29.89,North,0,5.4,9.2,74,0.00,CLR,,0.20,WeatherDisplay:10.37,2013-01-30 18:28:00,
2013-01-30 18:33:00,49.3,41.3,29.89,NW,315,4.5,10.4,74,0.00,CLR,,0.20,WeatherDisplay:10.37,2013-01-30 18:33:00,
2013-01-30 18:38:00,49.1,41.2,29.89,North,0,5.4,10.7,74,0.00,CLR,,0.20,WeatherDisplay:10.37,2013-01-30 18:38:00,
2013-01-30 18:43:00,49.1,41.2,29.90,North,0,3.8,8.1,74,0.00,CLR,,0.20,WeatherDisplay:10.37,2013-01-30 18:43:00,
2013-01-30 18:48:00,49.1,41.2,29.90,NW,315,4.5,10.4,74,0.00,CLR,,0.20,WeatherDisplay:10.37,2013-01-30 18:48:00,
2013-01-30 18:53:00,48.9,41.3,29.90,North,0,4.5,11.4,75,0.00,CLR,,0.20,WeatherDisplay:10.37,2013-01-30 18:53:00,
2013-01-30 18:58:00,48.9,41.3,29.91,West,270,6.9,12.7,75,0.00,CLR,,0.20,WeatherDisplay:10.37,2013-01-30 18:58:00,
2013-01-30 19:03:00,48.7,41.2,29.91,NW,315,3.8,17.3,75,0.00,CLR,,0.20,WeatherDisplay:10.37,2013-01-30 19:03:00,
2013-01-30 19:08:00,48.7,41.2,29.91,NE,45,3.1,12.7,75,0.00,CLR,,0.20,WeatherDisplay:10.37,2013-01-30 19:08:00,
2013-01-30 19:14:00,48.7,41.2,29.91,SE,135,4.5,10.4,75,0.00,CLR,,0.20,WeatherDisplay:10.37,2013-01-30 19:14:00,
2013-01-30 19:19:00,48.6,41.0,29.92,NW,315,5.4,15.2,75,0.00,CLR,,0.20,WeatherDisplay:10.37,2013-01-30 19:19:00,
2013-01-30 19:24:00,48.6,41.0,29.91,NW,315,3.1,10.4,75,0.00,CLR,,0.20,WeatherDisplay:10.37,2013-01-30 19:24:00,
2013-01-30 19:29:00,48.6,41.3,29.93,North,0,4.5,15.0,76,0.00,CLR,,0.20,WeatherDisplay:10.37,2013-01-30 19:29:00,
2013-01-30 19:34:00,48.6,41.3,29.92,North,0,4.5,13.8,76,0.00,CLR,,0.20,WeatherDisplay:10.37,2013-01-30 19:34:00,
2013-01-30 19:39:00,48.4,41.2,29.92,NE,45,3.8,6.9,76,0.00,CLR,,0.20,WeatherDisplay:10.37,2013-01-30 19:39:00,
2013-01-30 19:44:00,48.4,41.2,29.92,NNW,338,3.8,15.0,76,0.00,CLR,,0.20,WeatherDisplay:10.37,2013-01-30 19:44:00,
2013-01-30 19:49:00,48.2,41.0,29.93,North,0,4.5,11.5,76,0.00,CLR,,0.20,WeatherDisplay:10.37,2013-01-30 19:49:00,
2013-01-30 19:54:00,48.0,41.2,29.93,North,0,2.2,9.2,77,0.00,CLR,,0.20,WeatherDisplay:10.37,2013-01-30 19:54:00,
2013-01-30 19:59:00,48.0,41.2,29.93,NE,45,3.1,9.2,77,0.00,CLR,,0.20,WeatherDisplay:10.37,2013-01-30 19:59:00,
2013-01-30 20:04:00,48.0,41.2,29.93,WNW,292,3.8,11.5,77,0.00,CLR,,0.20,WeatherDisplay:10.37,2013-01-30 20:04:00,
2013-01-30 20:09:00,47.8,41.0,29.94,NW,315,3.8,9.2,77,0.00,CLR,,0.20,WeatherDisplay:10.37,2013-01-30 20:09:00,
2013-01-30 20:14:00,47.8,41.0,29.93,WSW,248,4.5,10.7,77,0.00,CLR,,0.20,WeatherDisplay:10.37,2013-01-30 20:14:00,
2013-01-30 20:19:00,47.8,41.0,29.93,WSW,248,5.4,10.4,77,0.00,CLR,,0.20,WeatherDisplay:10.37,2013-01-30 20:19:00,
2013-01-30 20:24:00,47.7,40.8,29.94,NE,45,2.2,6.9,77,0.00,CLR,,0.20,WeatherDisplay:10.37,2013-01-30 20:24:00,
2013-01-30 20:29:00,47.7,41.1,29.94,NE,45,3.1,5.8,78,0.00,CLR,,0.20,WeatherDisplay:10.37,2013-01-30 20:29:00,
2013-01-30 20:34:00,47.5,41.0,29.95,NW,315,2.2,5.8,78,0.00,CLR,,0.20,WeatherDisplay:10.37,2013-01-30 20:34:00,
2013-01-30 20:39:00,47.5,41.0,29.94,North,0,4.5,8.3,78,0.00,CLR,,0.20,WeatherDisplay:10.37,2013-01-30 20:39:00,
2013-01-30 20:44:00,47.3,40.8,29.94,NW,315,3.8,9.8,78,0.00,CLR,,0.20,WeatherDisplay:10.37,2013-01-30 20:44:00,
2013-01-30 20:49:00,47.3,40.8,29.95,NNE,22,4.5,17.3,78,0.00,CLR,,0.20,WeatherDisplay:10.37,2013-01-30 20:49:00,
2013-01-30 20:54:00,47.3,40.8,29.95,West,270,3.1,5.8,78,0.00,CLR,,0.20,WeatherDisplay:10.37,2013-01-30 20:54:00,
2013-01-30 20:59:00,47.1,40.6,29.95,North,0,2.2,3.8,78,0.00,CLR,,0.20,WeatherDisplay:10.37,2013-01-30 20:59:00,
2013-01-30 21:04:00,46.9,40.8,29.96,North,0,3.1,6.0,79,0.00,CLR,,0.20,WeatherDisplay:10.37,2013-01-30 21:04:00,
2013-01-30 21:09:00,46.9,40.8,29.96,NE,45,3.1,8.1,79,0.00,CLR,,0.20,WeatherDisplay:10.37,2013-01-30 21:09:00,
2013-01-30 21:14:00,46.8,40.6,29.96,NE,45,1.6,4.6,79,0.00,CLR,,0.20,WeatherDisplay:10.37,2013-01-30 21:14:00,
2013-01-30 21:19:00,46.8,40.6,29.96,North,0,1.6,4.6,79,0.00,CLR,,0.20,WeatherDisplay:10.37,2013-01-30 21:19:00,
2013-01-30 21:24:00,46.6,40.7,29.96,NW,315,2.2,6.0,80,0.00,CLR,,0.20,WeatherDisplay:10.37,2013-01-30 21:24:00,
2013-01-30 21:29:00,46.6,40.7,29.98,NW,315,0.7,6.9,80,0.00,CLR,,0.20,WeatherDisplay:10.37,2013-01-30 21:29:00,
2013-01-30 21:34:00,46.6,40.7,29.97,North,0,2.2,4.6,80,0.00,CLR,,0.20,WeatherDisplay:10.37,2013-01-30 21:34:00,
2013-01-30 21:39:00,46.6,40.7,29.98,NW,315,0.7,4.6,80,0.00,CLR,,0.20,WeatherDisplay:10.37,2013-01-30 21:39:00,
2013-01-30 21:44:00,46.6,41.1,29.98,NW,315,2.2,11.5,81,0.00,CLR,,0.20,WeatherDisplay:10.37,2013-01-30 21:44:00,
2013-01-30 21:49:00,46.6,41.1,29.99,North,0,2.2,5.8,81,0.00,CLR,,0.20,WeatherDisplay:10.37,2013-01-30 21:49:00,
2013-01-30 21:54:00,46.6,41.1,29.98,WNW,292,3.1,6.9,81,0.00,CLR,,0.20,WeatherDisplay:10.37,2013-01-30 21:54:00,
2013-01-30 21:59:00,46.6,41.1,29.99,East,90,0.7,3.5,81,0.00,CLR,,0.20,WeatherDisplay:10.37,2013-01-30 21:59:00,
2013-01-30 22:04:00,46.6,41.1,29.99,WNW,292,3.8,10.4,81,0.00,CLR,,0.20,WeatherDisplay:10.37,2013-01-30 22:04:00,
2013-01-30 22:09:00,46.6,41.1,29.99,North,0,1.6,8.1,81,0.00,CLR,,0.20,WeatherDisplay:10.37,2013-01-30 22:09:00,
2013-01-30 22:14:00,46.4,41.2,29.99,NNE,22,2.2,8.1,82,0.00,CLR,,0.20,WeatherDisplay:10.37,2013-01-30 22:14:00,
2013-01-30 22:19:00,46.4,41.2,29.99,NE,45,2.2,6.0,82,0.00,CLR,,0.20,WeatherDisplay:10.37,2013-01-30 22:19:00,
2013-01-30 22:24:00,46.4,41.2,30.00,WSW,248,1.6,8.1,82,0.00,CLR,,0.20,WeatherDisplay:10.37,2013-01-30 22:24:00,
2013-01-30 22:29:00,46.2,41.0,30.00,NW,315,3.1,6.0,82,0.00,CLR,,0.20,WeatherDisplay:10.37,2013-01-30 22:29:00,
2013-01-30 22:34:00,46.0,40.9,29.99,East,90,1.6,3.8,82,0.00,CLR,,0.20,WeatherDisplay:10.37,2013-01-30 22:34:00,
2013-01-30 22:39:00,46.0,40.9,30.00,NE,45,1.6,4.6,82,0.00,CLR,,0.20,WeatherDisplay:10.37,2013-01-30 22:39:00,
2013-01-30 22:44:00,45.9,40.7,30.00,North,0,3.1,6.0,82,0.00,CLR,,0.20,WeatherDisplay:10.37,2013-01-30 22:44:00,
2013-01-30 22:50:00,45.9,40.7,30.00,WSW,248,2.2,6.9,82,0.00,CLR,,0.20,WeatherDisplay:10.37,2013-01-30 22:50:00,
2013-01-30 22:55:00,45.7,40.5,30.01,SE,135,2.2,5.8,82,0.00,CLR,,0.20,WeatherDisplay:10.37,2013-01-30 22:55:00,
2013-01-30 23:08:00,45.5,40.6,30.02,West,270,1.6,6.0,83,0.00,CLR,,0.20,WeatherDisplay:10.37,2013-01-30 23:08:00,
2013-01-30 23:13:00,45.5,40.9,30.02,NW,315,3.1,8.1,84,0.00,CLR,,0.20,WeatherDisplay:10.37,2013-01-30 23:13:00,
2013-01-30 23:18:00,45.5,41.3,30.02,South,180,2.2,6.9,85,0.00,CLR,,0.20,WeatherDisplay:10.37,2013-01-30 23:18:00,
2013-01-30 23:23:00,45.5,41.3,30.02,NW,315,2.2,12.7,85,0.00,CLR,,0.20,WeatherDisplay:10.37,2013-01-30 23:23:00,
2013-01-30 23:28:00,45.5,41.3,30.03,NE,45,3.1,12.7,85,0.00,CLR,,0.20,WeatherDisplay:10.37,2013-01-30 23:28:00,
2013-01-30 23:33:00,45.3,41.4,30.03,North,0,3.1,6.9,86,0.00,CLR,,0.20,WeatherDisplay:10.37,2013-01-30 23:33:00,
2013-01-30 23:38:00,45.3,41.4,30.03,North,0,1.6,5.8,86,0.00,CLR,,0.20,WeatherDisplay:10.37,2013-01-30 23:38:00,
2013-01-30 23:43:00,45.3,41.7,30.04,West,270,1.6,6.0,87,0.00,CLR,,0.20,WeatherDisplay:10.37,2013-01-30 23:43:00,
2013-01-30 23:48:00,45.3,41.7,30.03,NW,315,1.6,5.8,87,0.00,CLR,,0.20,WeatherDisplay:10.37,2013-01-30 23:48:00,
2013-01-30 23:53:00,45.3,41.7,30.03,NW,315,0.7,6.9,87,0.00,CLR,,0.20,WeatherDisplay:10.37,2013-01-30 23:53:00,
2013-01-30 23:58:00,45.3,41.7,30.04,ENE,68,1.6,8.1,87,0.00,CLR,,0.20,WeatherDisplay:10.37,2013-01-30 23:58:00,